EW6851 Weather Reports


Display with metric or nautical units.
time (UTC)temp
F
wind
direction
speed
MPH
gust
MPH
rain 1hr
in
rain 24hr
in
rain mn
in
humidity
%
barometer
mb
20260906151146 88 355 3.0 5.0 0.00 0.00 0.00 66 1019.1
20260906150652 88 334 4.0 9.0 0.00 0.00 0.00 65 1019.1
20260906150143 88 313 6.0 9.0 0.00 0.00 0.00 65 1019.1
20260906145643 88 306 4.0 9.0 0.00 0.00 0.00 65 1019.1
20260906145143 88 279 5.0 7.0 0.00 0.00 0.00 65 1019.1
20260906144643 88 343 7.0 9.0 0.00 0.00 0.00 65 1019.1
20260906144150 88 303 9.0 10.0 0.00 0.00 0.00 65 1019.1
20260906143649 88 271 7.0 9.0 0.00 0.00 0.00 64 1019.1
20260906143146 89 295 8.0 9.0 0.00 0.00 0.00 64 1019.0
20260906142643 89 342 5.0 10.0 0.00 0.00 0.00 63 1019.0
20260906142149 89 328 3.0 10.0 0.00 0.00 0.00 63 1019.1
20260906141643 89 277 3.0 8.0 0.00 0.00 0.00 64 1019.0
20260906141149 89 351 3.0 8.0 0.00 0.00 0.00 64 1019.0
20260906140643 89 250 5.0 9.0 0.00 0.00 0.00 65 1019.0
20260906140149 89 329 1.0 10.0 0.00 0.00 0.00 64 1019.0
20260906135643 89 294 7.0 10.0 0.00 0.00 0.00 64 1019.0
20260906135143 89 312 5.0 9.0 0.00 0.00 0.00 63 1019.0
20260906134647 89 329 5.0 11.0 0.00 0.00 0.00 62 1019.1
20260906134143 89 286 4.0 9.0 0.00 0.00 0.00 62 1019.1
20260906133643 89 328 4.0 10.0 0.00 0.00 0.00 61 1019.0
20260906133146 89 311 6.0 10.0 0.00 0.00 0.00 60 1019.1
20260906132646 89 288 8.0 11.0 0.00 0.00 0.00 60 1019.1
20260906132143 90 317 2.0 10.0 0.00 0.00 0.00 59 1019.1
20260906131646 90 311 11.0 12.0 0.00 0.00 0.00 58 1019.1
20260906131149 90 289 3.0 10.0 0.00 0.00 0.00 59 1019.1
20260906130646 90 323 9.0 11.0 0.00 0.00 0.00 58 1019.1
20260906130146 90 328 3.0 9.0 0.00 0.00 0.00 56 1019.1
20260906125646 90 13 6.0 10.0 0.00 0.00 0.00 54 1019.1
20260906125143 90 319 3.0 8.0 0.00 0.00 0.00 55 1019.1
20260906124650 90 284 0.0 11.0 0.00 0.00 0.00 54 1019.2
20260906124150 90 40 3.0 7.0 0.00 0.00 0.00 55 1019.2
20260906123644 90 327 6.0 11.0 0.00 0.00 0.00 54 1019.2
20260906123146 90 317 6.0 10.0 0.00 0.00 0.00 55 1019.1
20260906122644 90 349 7.0 11.0 0.00 0.00 0.00 55 1019.1
20260906122146 90 298 3.0 7.0 0.00 0.00 0.00 57 1019.1
20260906121647 90 5 4.0 9.0 0.00 0.00 0.00 55 1019.1
20260906121147 90 18 7.0 7.0 0.00 0.00 0.00 56 1019.1
20260906120647 90 286 5.0 12.0 0.00 0.00 0.00 56 1019.1
20260906120144 90 323 3.0 13.0 0.00 0.00 0.00 57 1019.1
20260906115647 90 306 9.0 10.0 0.00 0.00 0.00 54 1019.0
20260906115144 90 344 3.0 9.0 0.00 0.00 0.00 54 1019.1
20260906114653 90 52 4.0 7.0 0.00 0.00 0.00 54 1019.1
20260906114144 90 343 2.0 7.0 0.00 0.00 0.00 52 1019.1
20260906113653 90 30 3.0 7.0 0.00 0.00 0.00 51 1019.2
20260906113153 90 26 4.0 10.0 0.00 0.00 0.00 51 1019.1
20260906112644 90 340 6.0 10.0 0.00 0.00 0.00 53 1019.2
20260906112144 91 40 6.0 9.0 0.00 0.00 0.00 50 1019.2
20260906111644 91 343 4.0 9.0 0.00 0.00 0.00 51 1019.2
20260906111150 91 5 3.0 7.0 0.00 0.00 0.00 49 1019.1
20260906110644 91 309 7.0 9.0 0.00 0.00 0.00 49 1019.1
20260906110147 91 28 2.0 8.0 0.00 0.00 0.00 50 1019.1
20260906105650 90 27 1.0 7.0 0.00 0.00 0.00 47 1019.1
20260906105144 90 305 2.0 12.0 0.00 0.00 0.00 47 1019.2
20260906104650 90 5 3.0 9.0 0.00 0.00 0.00 45 1019.2
20260906104147 90 272 3.0 8.0 0.00 0.00 0.00 46 1019.3
20260906103644 90 344 6.0 8.0 0.00 0.00 0.00 46 1019.3
20260906103144 89 303 5.0 8.0 0.00 0.00 0.00 47 1019.4
20260906102647 89 311 3.0 7.0 0.00 0.00 0.00 48 1019.3
20260906102144 89 333 5.0 8.0 0.00 0.00 0.00 49 1019.4
20260906101647 89 322 5.0 8.0 0.00 0.00 0.00 50 1019.4
20260906101147 89 328 4.0 9.0 0.00 0.00 0.00 50 1019.5
20260906100647 89 325 3.0 8.0 0.00 0.00 0.00 50 1019.5
20260906100144 89 306 5.0 6.0 0.00 0.00 0.00 50 1019.5
20260906095644 89 35 3.0 8.0 0.00 0.00 0.00 51 1019.5
20260906095150 89 47 2.0 6.0 0.00 0.00 0.00 51 1019.6
20260906094644 89 305 3.0 8.0 0.00 0.00 0.00 52 1019.6
20260906094144 89 305 8.0 8.0 0.00 0.00 0.00 54 1019.6
20260906093650 88 14 0.0 6.0 0.00 0.00 0.00 53 1019.7
20260906093144 88 304 3.0 7.0 0.00 0.00 0.00 56 1019.7
20260906092644 88 338 0.0 6.0 0.00 0.00 0.00 57 1019.7
20260906092144 88 310 5.0 9.0 0.00 0.00 0.00 58 1019.8
20260906091644 88 36 2.0 5.0 0.00 0.00 0.00 58 1019.8
20260906091150 88 300 6.0 7.0 0.00 0.00 0.00 59 1019.9
20260906090644 88 355 3.0 6.0 0.00 0.00 0.00 60 1019.9
20260906090147 88 285 4.0 6.0 0.00 0.00 0.00 61 1019.8
20260906085647 87 279 3.0 5.0 0.00 0.00 0.00 62 1019.8
20260906085144 87 340 1.0 6.0 0.00 0.00 0.00 62 1019.8
20260906084644 87 231 0.0 4.0 0.00 0.00 0.00 63 1019.7
20260906084144 87 277 2.0 6.0 0.00 0.00 0.00 63 1019.8
20260906083644 87 257 4.0 5.0 0.00 0.00 0.00 63 1019.8
20260906083144 88 348 2.0 7.0 0.00 0.00 0.00 63 1019.8
20260906082650 88 283 4.0 5.0 0.00 0.00 0.00 62 1019.8
20260906082144 88 238 0.0 2.0 0.00 0.00 0.00 59 1019.8
20260906081644 87 320 2.0 3.0 0.00 0.00 0.00 59 1019.8
20260906081148 87 320 2.0 3.0 0.00 0.00 0.00 61 1019.8
20260906080647 86 320 2.0 4.0 0.00 0.00 0.00 62 1019.7
20260906080144 86 300 0.0 3.0 0.00 0.00 0.00 64 1019.7
20260906075647 85 90 3.0 5.0 0.00 0.00 0.00 63 1019.7
20260906075147 85 44 0.0 3.0 0.00 0.00 0.00 63 1019.7
20260906074650 85 19 3.0 4.0 0.00 0.00 0.00 64 1019.6
20260906074144 85 5 1.0 5.0 0.00 0.00 0.00 65 1019.6
20260906073644 85 12 5.0 5.0 0.00 0.00 0.00 66 1019.7
20260906073145 85 26 3.0 3.0 0.00 0.00 0.00 67 1019.6
20260906072650 85 303 0.0 4.0 0.00 0.00 0.00 68 1019.7
20260906072144 84 302 3.0 3.0 0.00 0.00 0.00 70 1019.6
20260906071644 84 348 0.0 3.0 0.00 0.00 0.00 70 1019.6
20260906071144 84 295 0.0 4.0 0.00 0.00 0.00 70 1019.6
20260906070644 83 240 0.0 3.0 0.00 0.00 0.00 68 1019.5
20260906070147 83 247 2.0 4.0 0.00 0.00 0.00 67 1019.5
20260906065644 83 178 0.0 0.0 0.00 0.00 0.00 68 1019.5
20260906065144 82 178 0.0 3.0 0.00 0.00 0.00 67 1019.4
20260906064644 82 182 1.0 4.0 0.00 0.00 0.00 66 1019.4
20260906064153 82 183 3.0 4.0 0.00 0.00 0.00 64 1019.3
20260906063644 82 182 1.0 3.0 0.00 0.00 0.00 63 1019.4
20260906063144 81 171 0.0 4.0 0.00 0.00 0.00 63 1019.3
20260906062650 81 206 1.0 4.0 0.00 0.00 0.00 62 1019.3
20260906062144 80 148 1.0 4.0 0.00 0.00 0.00 62 1019.3
20260906061650 80 132 3.0 4.0 0.00 0.00 0.00 62 1019.4
20260906061150 80 153 1.0 3.0 0.00 0.00 0.00 62 1019.3
20260906060644 79 150 1.0 5.0 0.00 0.00 0.00 63 1019.4
20260906060144 79 117 2.0 5.0 0.00 0.00 0.00 63 1019.4
20260906055644 78 141 2.0 5.0 0.00 0.00 0.00 63 1019.3
20260906055147 78 143 2.0 5.0 0.00 0.00 0.00 63 1019.2
20260906054644 77 236 1.0 7.0 0.00 0.00 0.00 64 1019.2
20260906054147 77 153 3.0 5.0 0.00 0.00 0.00 64 1019.2
20260906053651 76 168 2.0 6.0 0.00 0.00 0.00 65 1019.1
20260906053144 76 138 1.0 7.0 0.00 0.00 0.00 64 1019.1
20260906052644 76 215 1.0 7.0 0.00 0.00 0.00 64 1019.1
20260906052147 76 145 4.0 7.0 0.00 0.00 0.00 64 1019.0
20260906051653 75 175 4.0 7.0 0.00 0.00 0.00 63 1019.1
20260906051144 75 167 1.0 5.0 0.00 0.00 0.00 63 1019.1
20260906050648 75 192 3.0 6.0 0.00 0.00 0.00 63 1019.1
20260906050147 75 163 3.0 7.0 0.00 0.00 0.00 62 1019.1
20260906045644 75 140 2.0 6.0 0.00 0.00 0.00 62 1019.1
20260906045150 75 149 3.0 6.0 0.00 0.00 0.00 61 1019.1
20260906044647 75 193 2.0 5.0 0.00 0.00 0.00 61 1019.0
20260906044148 75 173 2.0 7.0 0.00 0.00 0.00 60 1018.9
20260906043647 75 166 2.0 7.0 0.00 0.00 0.00 60 1018.9
20260906043147 75 144 2.0 8.0 0.00 0.00 0.00 60 1018.9
20260906042644 75 144 7.0 8.0 0.00 0.00 0.00 60 1018.9
20260906042147 75 159 4.0 8.0 0.00 0.00 0.00 59 1019.0
20260906041644 75 155 5.0 6.0 0.00 0.00 0.00 59 1018.9
20260906041144 75 136 1.0 8.0 0.00 0.00 0.00 59 1018.9
20260906040650 75 132 4.0 6.0 0.00 0.00 0.00 59 1018.7
20260906040150 75 152 4.0 7.0 0.00 0.00 0.00 58 1018.7
20260906035644 75 94 3.0 5.0 0.00 0.00 0.00 58 1018.7
20260906035144 75 150 5.0 6.0 0.00 0.00 0.00 58 1018.7
20260906034648 75 162 3.0 5.0 0.00 0.00 0.00 58 1018.7
20260906034147 75 170 2.0 7.0 0.00 0.00 0.00 58 1018.6
20260906033647 75 98 2.0 5.0 0.00 0.00 0.00 58 1018.5
20260906033144 76 128 4.0 6.0 0.00 0.00 0.00 57 1018.4
20260906032644 75 192 2.0 6.0 0.00 0.00 0.00 57 1018.4
20260906032144 75 146 3.0 6.0 0.00 0.00 0.00 57 1018.4
20260906031653 75 165 5.0 7.0 0.00 0.00 0.00 57 1018.5
20260906031144 76 160 3.0 6.0 0.00 0.00 0.00 56 1018.5
20260906030647 76 161 1.0 6.0 0.00 0.00 0.00 56 1018.5
20260906030144 76 234 1.0 8.0 0.00 0.00 0.00 56 1018.5
20260906025644 76 149 3.0 8.0 0.00 0.00 0.00 56 1018.5
20260906025144 76 131 2.0 7.0 0.00 0.00 0.00 56 1018.4
20260906024644 76 153 3.0 7.0 0.00 0.00 0.00 56 1018.5
20260906024144 76 167 2.0 8.0 0.00 0.00 0.00 56 1018.6
20260906023644 76 157 7.0 7.0 0.00 0.00 0.00 56 1018.6
20260906023144 76 131 3.0 8.0 0.00 0.00 0.00 56 1018.7
20260906022647 76 145 3.0 5.0 0.00 0.00 0.00 56 1018.7
20260906022144 76 161 3.0 7.0 0.00 0.00 0.00 56 1018.7
20260906021647 76 142 1.0 7.0 0.00 0.00 0.00 56 1018.7
20260906021147 76 175 1.0 4.0 0.00 0.00 0.00 57 1018.7
20260906020650 76 173 3.0 7.0 0.00 0.00 0.00 57 1018.7
20260906020145 76 146 1.0 6.0 0.00 0.00 0.00 58 1018.7
20260906015642 76 153 4.0 6.0 0.00 0.00 0.00 58 1018.7
20260906015142 76 136 5.0 8.0 0.00 0.00 0.00 58 1018.6
20260906014645 76 155 5.0 7.0 0.00 0.00 0.00 59 1018.7
20260906014142 76 167 0.0 4.0 0.00 0.00 0.00 59 1018.7
20260906013648 76 171 1.0 5.0 0.00 0.00 0.00 59 1018.6
20260906013142 76 173 3.0 5.0 0.00 0.00 0.00 60 1018.7
20260906012648 76 144 4.0 4.0 0.00 0.00 0.00 60 1018.6
20260906012142 76 148 1.0 6.0 0.00 0.00 0.00 61 1018.6
20260906011642 76 149 4.0 4.0 0.00 0.00 0.00 62 1018.6
20260906011142 76 151 1.0 4.0 0.00 0.00 0.00 62 1018.6
20260906010645 76 131 3.0 5.0 0.00 0.00 0.00 62 1018.6
20260906010142 76 167 3.0 5.0 0.00 0.00 0.00 62 1018.6
20260906005648 76 161 1.0 5.0 0.00 0.00 0.00 63 1018.6
20260906005146 77 169 4.0 7.0 0.00 0.00 0.00 62 1018.6
20260906004646 77 150 5.0 8.0 0.00 0.00 0.00 62 1018.6
20260906004148 77 139 1.0 5.0 0.00 0.00 0.00 63 1018.7
20260906003645 77 102 3.0 5.0 0.00 0.00 0.00 63 1018.7
20260906003149 77 142 2.0 6.0 0.00 0.00 0.00 64 1018.7
20260906002642 77 155 4.0 5.0 0.00 0.00 0.00 64 1018.8
20260906002151 77 184 4.0 7.0 0.00 0.00 0.00 64 1018.8
20260906001642 77 170 2.0 6.0 0.00 0.00 0.00 64 1018.8
20260906001145 77 191 6.0 7.0 0.00 0.00 0.00 64 1018.8
20260906000642 77 171 3.0 6.0 0.00 0.00 0.00 65 1018.8
20260906000148 77 105 5.0 7.0 0.00 0.00 0.00 66 1018.8
20260905235648 77 196 3.0 7.0 0.00 0.00 0.00 66 1019.0
20260905235142 77 160 2.0 6.0 0.00 0.00 0.00 66 1019.0
20260905234642 77 156 5.0 8.0 0.00 0.00 0.00 66 1019.1
20260905234143 77 194 3.0 7.0 0.00 0.00 0.00 67 1019.1
20260905233645 77 138 1.0 5.0 0.00 0.00 0.00 68 1019.1
20260905233148 77 121 2.0 5.0 0.00 0.00 0.00 69 1019.1
20260905232643 78 148 3.0 8.0 0.00 0.00 0.00 69 1019.2
20260905232146 78 148 3.0 8.0 0.00 0.00 0.00 70 1019.2
20260905231645 78 138 3.0 8.0 0.00 0.00 0.00 70 1019.1
20260905231143 78 155 1.0 8.0 0.00 0.00 0.00 71 1019.1
20260905230646 78 178 5.0 6.0 0.00 0.00 0.00 71 1019.2
20260905230146 78 150 2.0 7.0 0.00 0.00 0.00 71 1019.2
20260905225643 78 182 0.0 4.0 0.00 0.00 0.00 71 1019.2
20260905225143 78 186 2.0 6.0 0.00 0.00 0.00 71 1019.2
20260905224643 78 138 0.0 6.0 0.00 0.00 0.00 72 1019.1
20260905224143 78 186 4.0 7.0 0.00 0.00 0.00 72 1019.2
20260905223652 78 140 6.0 8.0 0.00 0.00 0.00 72 1019.2
20260905223143 78 125 2.0 6.0 0.00 0.00 0.00 72 1019.2
20260905222646 78 145 3.0 5.0 0.00 0.00 0.00 72 1019.3
20260905222146 78 187 1.0 5.0 0.00 0.00 0.00 72 1019.3
20260905221649 78 182 4.0 7.0 0.00 0.00 0.00 72 1019.2
20260905221143 79 138 3.0 5.0 0.00 0.00 0.00 72 1019.1
20260905220643 79 153 4.0 6.0 0.00 0.00 0.00 72 1019.2
20260905220143 79 158 3.0 5.0 0.00 0.00 0.00 72 1019.2
20260905215649 79 153 3.0 7.0 0.00 0.00 0.00 71 1019.2
20260905215143 79 138 4.0 5.0 0.00 0.00 0.00 71 1019.2
20260905214646 79 184 4.0 6.0 0.00 0.00 0.00 71 1019.2
20260905214143 79 137 1.0 6.0 0.00 0.00 0.00 71 1019.2
20260905213646 79 142 4.0 7.0 0.00 0.00 0.00 71 1019.3
20260905213143 79 173 1.0 6.0 0.00 0.00 0.00 72 1019.3
20260905212646 79 181 4.0 6.0 0.00 0.00 0.00 72 1019.2
20260905212143 79 162 0.0 7.0 0.00 0.00 0.00 72 1019.3
20260905211643 79 134 2.0 6.0 0.00 0.00 0.00 72 1019.2
20260905211146 79 132 2.0 6.0 0.00 0.00 0.00 72 1019.2
20260905210643 79 136 3.0 8.0 0.00 0.00 0.00 72 1019.3
20260905210143 79 166 4.0 7.0 0.00 0.00 0.00 71 1019.3
20260905205646 80 155 4.0 6.0 0.00 0.00 0.00 71 1019.3
20260905205143 80 149 1.0 5.0 0.00 0.00 0.00 71 1019.3
20260905204643 80 163 3.0 4.0 0.00 0.00 0.00 70 1019.3
20260905204146 80 163 1.0 5.0 0.00 0.00 0.00 70 1019.3
20260905203643 80 181 2.0 5.0 0.00 0.00 0.00 70 1019.2
20260905203146 80 109 0.0 6.0 0.00 0.00 0.00 70 1019.2
20260905202643 80 157 2.0 7.0 0.00 0.00 0.00 69 1019.2
20260905202146 80 161 4.0 6.0 0.00 0.00 0.00 69 1019.3
20260905201643 80 128 2.0 7.0 0.00 0.00 0.00 69 1019.4
20260905201149 80 142 1.0 7.0 0.00 0.00 0.00 69 1019.4
20260905200646 80 153 3.0 8.0 0.00 0.00 0.00 69 1019.3
20260905200146 80 170 1.0 5.0 0.00 0.00 0.00 68 1019.3
20260905195643 80 136 4.0 6.0 0.00 0.00 0.00 68 1019.4
20260905195152 80 153 4.0 6.0 0.00 0.00 0.00 68 1019.4
20260905194643 81 167 3.0 7.0 0.00 0.00 0.00 68 1019.3
20260905194149 81 154 1.0 6.0 0.00 0.00 0.00 67 1019.4
20260905193646 81 121 2.0 5.0 0.00 0.00 0.00 67 1019.4
20260905193146 81 159 2.0 6.0 0.00 0.00 0.00 67 1019.4
20260905192647 81 142 0.0 5.0 0.00 0.00 0.00 68 1019.3
20260905192146 81 130 1.0 3.0 0.00 0.00 0.00 68 1019.3
20260905191643 81 123 2.0 4.0 0.00 0.00 0.00 69 1019.2
20260905191143 81 151 2.0 6.0 0.00 0.00 0.00 69 1019.2
20260905190643 81 184 3.0 7.0 0.00 0.00 0.00 69 1019.1
20260905190146 82 165 3.0 5.0 0.00 0.00 0.00 69 1019.1
20260905185643 82 127 2.0 5.0 0.00 0.00 0.00 69 1019.0
20260905185152 82 146 0.0 4.0 0.00 0.00 0.00 69 1018.8
20260905184646 83 146 0.0 3.0 0.00 0.00 0.00 69 1018.8
20260905184146 83 138 1.0 5.0 0.00 0.00 0.00 68 1018.8
20260905183643 83 146 0.0 1.0 0.00 0.00 0.00 69 1018.7
20260905183143 84 146 1.0 4.0 0.00 0.00 0.00 68 1018.8
20260905182643 84 5 0.0 3.0 0.00 0.00 0.00 70 1018.7
20260905182146 84 350 0.0 3.0 0.00 0.00 0.00 70 1018.6
20260905181646 84 335 0.0 3.0 0.00 0.00 0.00 71 1018.6
20260905181143 84 335 2.0 3.0 0.00 0.00 0.00 71 1018.6
20260905180646 84 303 0.0 3.0 0.00 0.00 0.00 70 1018.5
20260905180149 84 342 2.0 4.0 0.00 0.00 0.00 70 1018.5
20260905175646 85 355 2.0 4.0 0.00 0.00 0.00 70 1018.4
20260905175144 85 275 0.0 3.0 0.00 0.00 0.00 69 1018.4
20260905174646 85 308 0.0 3.0 0.00 0.00 0.00 69 1018.4
20260905174149 85 296 2.0 3.0 0.00 0.00 0.00 69 1018.4
20260905173646 85 293 3.0 4.0 0.00 0.00 0.00 68 1018.4
20260905173146 85 281 4.0 5.0 0.00 0.00 0.00 68 1018.3
20260905172646 85 301 1.0 4.0 0.00 0.00 0.00 67 1018.3
20260905172146 85 292 2.0 5.0 0.00 0.00 0.00 67 1018.3
20260905171646 86 284 3.0 5.0 0.00 0.00 0.00 66 1018.3
20260905171143 86 294 3.0 5.0 0.00 0.00 0.00 65 1018.3
20260905170649 86 267 4.0 5.0 0.00 0.00 0.00 65 1018.3
20260905170143 87 312 2.0 6.0 0.00 0.00 0.00 64 1018.2
20260905165649 87 334 3.0 4.0 0.00 0.00 0.00 64 1018.2
20260905165143 87 268 3.0 5.0 0.00 0.00 0.00 63 1018.2
20260905164643 87 296 3.0 6.0 0.00 0.00 0.00 63 1018.2
20260905164143 87 301 2.0 6.0 0.00 0.00 0.00 63 1018.2
20260905163646 87 312 4.0 6.0 0.00 0.00 0.00 62 1018.2
20260905163143 88 289 2.0 6.0 0.00 0.00 0.00 61 1018.3
20260905162643 87 323 1.0 7.0 0.00 0.00 0.00 61 1018.3
20260905162143 87 337 3.0 6.0 0.00 0.00 0.00 63 1018.2
20260905161643 87 342 2.0 6.0 0.00 0.00 0.00 61 1018.3
20260905161143 87 305 1.0 8.0 0.00 0.00 0.00 62 1018.4
20260905160646 88 40 2.0 7.0 0.00 0.00 0.00 59 1018.4
20260905160146 88 342 1.0 7.0 0.00 0.00 0.00 60 1018.4
20260905155646 89 311 7.0 8.0 0.00 0.00 0.00 60 1018.3
20260905155146 88 347 1.0 6.0 0.00 0.00 0.00 62 1018.3
20260905154643 88 333 3.0 8.0 0.00 0.00 0.00 61 1018.3
20260905154143 89 314 4.0 9.0 0.00 0.00 0.00 61 1018.3
20260905153646 89 342 3.0 8.0 0.00 0.00 0.00 61 1018.3
20260905153149 89 287 6.0 7.0 0.00 0.00 0.00 61 1018.3
20260905152649 89 38 3.0 11.0 0.00 0.00 0.00 60 1018.3
20260905152143 89 334 4.0 11.0 0.00 0.00 0.00 59 1018.3
20260905151643 89 282 4.0 7.0 0.00 0.00 0.00 59 1018.2